Location: Unspecified
(35.7250°N, 0.0000°E)
Time: 12:57:23
(UTC+00:00)

SR - Pass Details

Date: 22 June 2019
Orbit: 578 x 878 km, 66.7° (Epoch: 16 August)

Event Time Altitude Azimuth Distance (km) Brightness Sun altitude
Exits shadow 03:09:00 25° 191° (S) 1,172 ? -16.1°
Maximum altitude 03:11:19 67° 115° (ESE) 628 ? -15.8°
Drops below altitude 10° 03:15:31 10° 33° (NNE) 1,907 ? -15.2°
Sets 03:17:47 0° 30° (NNE) 2,828 ? -14.9°
